Helicity
26 20 15 23 39 27 8 -21 -19 -6 -14 -8 9 12 23 36 55 53 97 108 95 112 57 159 68 25 92 101 69 82 89 59 89 61 50 82 99 118 86 80 115 75 77 93 69 62 67
28 23 30 30 30 28 27 20 38 12 15 1 23 36 36 51 35 46 76 114 94 57 78 89 51 74 157 109 93 116 133 94 45 50 56 68 73 99 72 63 64 79 77 31 11 5 55
28 35 43 47 54 63 74 96 57 6 25 33 47 52 68 51 44 54 57 101 62 62 127 98 48 126 108 116 73 75 71 62 43 48 57 89 76 73 47 53 50 27 71 32 69 52 44
40 32 48 56 70 115 144 200 129 28 47 45 54 62 63 63 45 46 59 128 19 110 165 36 16 137 43 93 102 67 90 56 61 61 59 54 53 60 56 49 35 51 75 131 55 38 38
29 44 72 96 196 230 169 57 24 27 46 50 89 62 57 100 70 42 78 75 109 121 124 60 67 59 87 79 102 84 61 45 54 71 32 61 48 45 61 77 86 52 104 63 67 27 25
42 127 141 117 94 79 16 33 38 35 29 45 -40 17 22 58 43 29 42 -1 110 63 101 109 108 57 56 51 44 56 31 48 81 70 61 69 69 69 67 79 91 76 63 25 70 49 10
174 55 62 74 63 60 42 36 37 28 52 35 48 34 -25 22 15 15 25 5 32 243 147 126 31 111 43 63 96 84 35 98 90 58 63 57 74 69 64 25 49 56 46 -5 11 86 -36
135 22 89 49 33 31 10 39 19 28 27 25 -2 -5 14 36 30 18 82 30 36 -33 133 95 106 160 92 49 65 43 55 79 55 43 46 60 38 104 45 41 34 20 37 45 15 27 36
22 42 56 35 40 38 45 34 17 4 17 36 -2 9 21 33 37 32 55 59 13 59 69 19 16 61 72 65 68 53 38 31 28 23 22 68 53 29 25 64 46 4 28 37 24 7 55
62 46 36 22 59 15 33 29 10 3 5 26 34 16 18 19 32 -3 35 23 10 44 52 51 12 25 20 43 65 64 -1 36 22 23 -5 19 40 25 3 1 35 -13 19 24 -20 19 -1
56 62 62 42 16 24 7 21 -6 8 -7 14 26 45 0 55 41 30 33 54 54 68 64 36 45 54 21 69 35 41 17 19 3 -13 12 -14 11 1 6 15 -17 46 -23 -12 33 31 -6
57 75 75 49 8 16 12 12 -21 -7 23 -21 4 -16 11 54 52 33 6 35 73 50 64 29 35 36 42 52 7 9 -4 -10 -14 -16 -1 15 3 -9 16 7 17 2 -9 9 3 18 61
64 81 76 40 9 -2 7 28 20 -4 20 55 13 19 84 45 69 22 27 55 49 107 51 64 42 17 14 -17 -11 -26 -27 -26 -5 8 2 30 28 13 20 9 -13 -11 11 79 119 53 -3
68 77 68 42 4 -7 -5 29 21 14 29 22 44 71 68 29 38 41 60 49 133 112 85 65 21 -6 -50 -49 -41 -8 24 -7 87 65 64 36 63 19 -6 -4 10 3 37 123 131 66 24
75 72 47 44 7 -25 -20 2 14 34 31 39 52 66 93 74 82 61 86 161 139 122 122 25 -24 -38 -47 -14 39 67 73 68 45 49 68 65 55 -10 13 32 10 17 84 50 106 116 230
82 58 22 24 11 -4 -45 -37 13 29 50 50 58 77 137 129 66 85 141 122 111 109 43 57 19 1 -15 58 47 52 62 43 41 9 24 33 97 42 44 40 60 80 14 189 208 165 175
78 62 1 -22 -15 1 -16 -46 -16 8 19 49 55 64 121 85 69 81 165 146 187 164 147 176 166 50 56 93 81 61 81 32 9 8 30 28 59 72 61 51 57 62 101 218 249 210 149
72 53 -4 -54 -48 -26 -7 -5 -17 -3 0 21 26 21 96 88 60 118 97 127 174 190 145 130 120 64 55 75 85 70 38 11 46 123 77 143 101 125 87 71 76 124 156 126 98 108 138
42 32 -17 -44 -68 -49 -52 -29 -16 -19 -32 21 24 44 85 71 72 96 100 93 121 110 111 109 82 74 75 75 44 51 91 159 168 148 138 106 84 105 83 71 61 129 127 83 70 87 114
-6 -34 -40 -34 -23 -36 -54 -44 15 1 -33 -5 12 23 59 57 92 80 77 109 83 128 145 117 130 121 109 63 74 80 87 103 92 92 108 71 68 79 82 135 142 134 174 86 36 78 97
-8 -72 -89 -54 -13 -3 -26 -38 8 -6 -35 3 22 37 55 28 26 28 42 59 50 58 117 85 79 47 50 55 64 50 81 86 94 90 62 48 60 59 55 55 69 96 142 81 48 25 -21
2 -45 -75 -86 -88 -43 -18 -15 -9 15 -20 16 24 25 23 1 16 6 30 48 14 51 48 89 65 63 47 43 52 51 66 71 71 79 47 46 35 31 42 28 16 53 143 106 78 43 -26
6 -24 -48 -65 -94 -110 -90 -23 5 39 17 18 25 6 4 -34 -27 -12 13 1 -3 29 29 25 72 41 43 81 101 118 50 29 33 51 49 35 23 15 53 30 30 47 58 63 10 21 -5
1 -7 -36 8 -34 -85 -58 17 50 57 39 40 24 15 -4 -26 -28 -16 -42 -30 -5 -3 14 12 -1 -4 43 52 41 17 23 13 11 21 5 21 25 15 23 11 27 -6 1 -7 40 56 19
4 -12 -3 62 -39 -58 -24 74 109 34 56 38 31 -5 -27 -41 -20 -65 -35 -43 -18 -29 -7 2 6 17 34 12 -2 6 3 14 5 -9 -1 -8 7 4 7 3 -9 -3 -3 -4 1 11 27
22 -22 -24 110 51 14 10 30 47 44 49 14 29 14 -12 -14 -17 -55 -39 -29 -12 -21 -26 -11 -2 2 -18 -18 -15 -1 23 -11 1 -29 -46 -53 -48 -47 -46 -33 20 9 -2 -5 -8 4 19
28 2 -16 40 79 43 23 53 36 84 64 50 32 0 4 -14 -37 -83 -50 -34 -35 -17 8 -2 -5 -7 -27 14 48 62 66 30 66 34 -23 -54 -50 -24 -23 -15 -8 -29 -35 -25 26 30 5
35 24 -19 -17 38 48 47 34 79 52 31 52 33 30 24 10 -28 -67 -66 -62 -51 -33 17 18 21 19 5 48 47 55 61 67 63 77 49 39 22 33 16 3 33 -29 -29 12 -10 -25 -21
36 20 3 -14 -11 30 64 66 58 67 66 67 38 22 49 8 -22 -54 -89 -76 -74 -62 -33 -13 12 17 31 51 51 47 56 59 76 63 49 53 67 36 52 39 18 0 -14 -20 -30 -4 -1
Wind_Speed
82 84 85 85 85 84 83 85 86 84 83 82 79 76 73 73 72 72 72 67 64 52 34 26 19 14 25 42 45 12 11 15 19 26 30 33 37 43 49 49 56 68 68 69 74 79 82
81 82 82 80 79 80 85 85 85 87 86 84 77 73 69 67 71 71 72 73 61 54 29 22 16 14 34 49 24 6 11 17 20 23 28 35 38 39 48 52 53 54 70 78 75 80 78
83 83 82 86 83 79 80 80 88 91 85 85 82 76 69 63 64 68 72 73 62 60 17 20 21 17 31 36 17 11 10 18 23 27 33 32 31 36 38 48 49 57 68 64 59 61 64
84 87 90 84 80 75 72 80 93 93 90 86 81 69 62 57 58 63 67 71 36 8 7 7 14 22 31 22 15 10 16 21 25 28 31 34 34 34 38 46 51 52 52 61 46 53 51
86 85 84 81 88 82 82 80 94 91 89 80 75 56 57 55 53 53 51 37 8 1 1 7 17 26 29 22 22 12 17 22 20 24 28 28 25 31 35 42 50 49 61 63 66 51 57
82 85 84 94 88 77 82 73 67 71 66 64 71 58 49 43 46 45 41 32 9 3 3 17 24 29 30 29 15 15 18 26 16 18 26 31 35 37 37 39 56 56 62 65 66 59 69
77 86 97 90 84 79 75 68 58 48 28 10 39 47 37 44 39 44 30 29 20 24 30 27 16 27 11 15 17 17 15 20 23 23 33 28 39 41 35 29 36 55 64 72 70 65 68
69 82 90 84 84 76 69 58 45 22 22 4 46 43 38 31 38 36 9 33 35 18 25 28 23 22 15 21 24 19 9 17 21 27 25 36 42 26 23 26 32 42 54 57 54 41 51
62 64 71 87 88 83 88 80 48 17 3 13 24 29 34 32 29 24 21 27 29 30 24 21 24 26 23 26 25 10 6 21 21 22 21 31 29 33 17 34 33 28 30 33 36 53 39
69 60 57 65 84 87 82 85 73 65 5 18 23 24 32 23 21 26 23 36 36 30 28 24 18 22 23 26 26 10 8 29 25 30 23 26 25 21 23 21 15 25 39 37 33 45 43
67 62 59 57 54 79 76 32 58 50 38 29 26 18 46 16 23 25 32 36 35 33 25 25 22 32 21 23 14 18 19 25 26 27 27 22 27 26 28 39 37 39 34 32 28 28 21
68 62 60 59 56 50 36 25 55 49 33 66 58 61 45 22 23 26 38 45 39 28 21 23 26 14 12 31 20 18 19 24 29 30 30 17 44 38 39 35 36 33 31 26 25 27 24
68 65 60 59 56 53 45 37 22 23 12 9 41 56 24 19 34 35 37 41 27 25 32 24 18 39 6 22 26 25 22 22 22 23 24 31 39 37 35 31 30 32 27 19 24 33 26
66 65 60 62 56 52 48 43 34 17 15 26 39 29 18 32 34 34 37 25 24 12 20 48 39 23 24 36 32 32 36 14 40 36 27 26 32 36 32 32 30 29 27 24 21 28 35
64 65 59 58 56 53 49 45 43 35 26 23 25 29 27 28 26 25 31 26 28 32 31 43 53 49 41 40 44 44 36 34 31 40 30 32 35 31 33 31 32 29 25 24 31 37 38
60 62 59 54 52 47 47 45 41 34 26 22 34 37 30 19 16 23 35 46 37 28 25 19 49 47 55 47 37 36 36 28 30 27 25 31 34 30 31 29 36 31 18 27 28 38 43
56 56 56 51 47 44 40 38 36 30 22 21 39 45 22 12 17 32 48 49 42 31 41 42 34 51 43 35 34 33 32 26 24 23 22 27 35 33 33 33 25 23 19 29 26 33 38
55 54 51 45 40 39 37 36 31 31 23 37 45 50 25 12 42 42 48 43 33 25 32 30 27 28 33 28 29 29 25 22 24 26 22 32 34 36 32 26 24 21 19 20 27 27 30
51 54 48 38 33 30 31 31 33 34 37 40 50 47 33 30 48 49 48 46 41 36 27 24 27 25 27 27 24 29 29 28 28 28 24 27 28 34 30 24 15 19 13 23 32 34 21
43 45 43 36 26 22 24 29 37 37 38 44 49 54 42 40 45 53 55 48 50 41 32 31 31 26 25 25 31 30 25 26 25 27 29 25 21 25 34 34 26 20 3 12 35 20 20
37 32 38 29 21 17 20 27 35 39 40 42 48 54 47 55 51 54 52 48 49 49 33 26 26 11 26 20 23 21 21 20 24 21 25 27 19 20 17 20 18 9 3 4 28 59 11
30 27 24 27 17 12 17 29 36 40 39 44 52 54 52 56 54 54 49 52 53 45 39 36 26 19 19 17 20 22 16 13 14 15 21 25 22 20 16 16 12 11 10 22 28 43 53
25 22 17 15 12 14 25 33 40 44 43 43 44 45 48 51 51 52 51 49 51 48 43 41 34 42 39 29 21 22 23 21 20 21 17 19 24 22 25 25 25 22 21 19 25 27 40
22 19 35 3 5 22 20 38 48 49 45 39 40 37 46 50 47 49 49 50 51 47 49 41 36 44 36 25 27 31 30 23 18 19 20 23 22 24 26 15 25 10 26 24 21 19 21
26 19 45 27 18 46 58 60 57 48 41 34 34 38 41 45 43 41 49 47 45 44 43 43 37 39 28 29 33 32 30 29 28 26 27 28 25 26 22 22 25 23 31 36 33 32 19
38 28 27 49 41 39 44 49 48 43 37 31 31 30 35 40 40 38 41 45 44 42 40 36 34 33 29 31 30 30 29 27 29 27 29 33 35 36 34 37 40 38 41 40 38 41 50
38 31 24 41 36 29 32 35 37 35 31 29 27 29 32 34 35 37 41 42 36 39 39 37 35 32 30 31 32 31 30 29 29 29 30 32 34 37 36 35 34 40 44 43 41 36 48
40 31 22 25 26 18 21 26 29 31 32 34 26 30 33 31 29 36 35 35 35 36 37 34 35 32 31 31 31 31 31 31 29 30 31 34 35 37 38 37 36 44 45 45 39 41 43
39 32 23 18 17 15 14 15 18 25 29 33 32 31 34 30 29 32 32 34 34 35 33 33 32 32 32 32 31 29 28 29 29 28 33 32 38 35 40 37 38 42 38 41 41 41 43
Wind_Direction
347 345 342 340 338 337 334 330 326 325 321 318 316 313 312 310 310 308 305 302 292 287 271 262 266 301 302 296 296 333 348 342 338 322 314 314 312 309 303 307 303 293 296 295 292 288 285
349 346 344 342 339 337 334 332 329 326 323 321 319 317 315 313 310 309 305 300 294 285 264 263 265 275 294 288 320 344 333 329 329 328 318 313 312 314 306 305 303 307 301 295 294 288 289
350 347 344 339 336 336 335 335 333 327 326 320 315 313 314 316 314 310 307 299 291 281 237 262 275 290 291 292 316 313 326 324 325 318 313 324 323 314 317 310 312 307 305 306 302 297 292
350 348 343 340 338 334 336 334 332 329 323 319 312 314 316 319 314 313 310 299 296 204 228 277 267 301 290 304 296 319 318 318 317 318 321 324 323 318 312 310 312 309 312 302 312 312 306
350 347 345 343 344 343 341 337 331 332 325 320 318 319 317 306 308 310 313 326 35 42 281 249 291 296 294 295 286 310 306 309 315 326 327 338 340 323 321 312 308 312 304 301 303 315 308
353 358 357 348 346 348 343 346 346 344 345 338 296 293 308 300 297 307 294 297 340 326 309 296 294 294 294 293 303 302 304 301 315 327 324 323 320 315 316 314 297 307 302 302 300 311 309
13 3 353 353 353 352 352 353 356 357 3 18 265 278 327 255 296 297 298 257 285 269 266 271 290 293 303 310 301 308 312 312 310 317 309 323 312 305 316 320 318 312 305 298 301 310 312
12 4 1 3 0 0 0 359 3 2 272 150 301 312 339 330 335 325 345 252 242 292 263 275 274 285 306 294 300 305 338 320 314 307 322 316 306 323 335 333 324 320 310 308 312 326 330
9 7 12 6 5 5 2 3 5 19 299 140 260 286 320 310 313 333 273 259 250 255 266 263 252 264 281 292 306 333 350 318 323 323 327 315 323 336 343 335 332 333 330 336 329 294 248
16 19 20 21 16 12 15 12 357 354 204 129 208 202 193 226 227 220 271 240 233 251 247 266 289 287 295 284 303 16 51 313 323 322 337 332 339 348 354 1 32 348 210 221 242 321 333
24 27 30 29 32 27 31 343 346 344 339 106 158 164 110 248 212 201 184 191 206 221 236 253 269 242 268 288 11 325 336 323 325 335 340 344 343 360 356 205 211 214 226 230 227 213 214
29 33 34 37 39 44 51 356 356 356 1 56 109 89 112 188 195 184 168 166 183 202 223 234 233 261 277 232 335 10 8 339 322 331 310 326 225 222 202 216 210 219 226 223 184 184 184
32 37 39 41 44 49 59 65 67 357 36 107 117 96 140 173 165 170 168 169 187 192 192 207 219 173 282 23 38 52 39 17 10 4 2 244 205 209 217 215 201 187 185 188 170 162 164
35 39 43 44 49 55 63 70 79 105 133 133 118 127 140 137 155 158 157 187 169 175 178 156 171 41 39 70 63 78 122 360 192 196 231 226 207 200 205 198 195 197 182 168 174 149 145
37 40 44 50 54 58 66 74 84 106 128 140 141 132 133 144 163 168 159 157 162 164 171 157 97 85 72 84 143 161 175 176 183 184 197 196 193 201 201 197 190 173 167 199 189 171 146
40 42 46 53 57 63 69 77 90 101 118 141 140 132 130 160 174 159 146 138 152 162 177 152 105 99 102 140 163 169 170 182 180 189 211 203 185 193 193 193 184 165 219 156 176 151 139
41 43 47 53 60 64 73 79 89 102 123 142 130 127 147 177 161 143 128 131 139 153 151 140 146 140 152 159 165 168 173 180 185 199 221 209 181 176 179 175 169 165 166 164 183 170 160
41 43 47 53 60 66 71 79 91 102 114 118 116 113 147 159 120 126 123 138 154 160 154 160 165 158 159 170 163 168 169 180 182 179 199 184 175 164 166 179 178 178 169 175 165 147 152
40 43 48 56 62 65 71 78 92 102 104 111 107 112 128 125 116 120 132 138 136 139 152 165 161 164 161 164 171 154 157 161 163 166 182 183 178 172 172 179 178 165 177 172 165 156 155
41 45 50 55 62 69 76 84 96 103 106 107 105 101 112 120 128 123 124 128 125 136 155 157 156 162 161 154 153 156 162 162 161 162 171 191 181 170 161 159 161 156 160 170 164 178 144
41 48 50 57 57 69 88 101 100 109 109 103 99 96 109 107 116 121 126 129 125 130 158 156 152 168 165 170 161 165 165 178 168 169 174 181 194 190 200 192 186 191 200 162 48 128 52
42 49 50 54 58 62 97 112 110 117 112 100 97 99 106 105 114 118 125 121 121 133 147 146 154 170 168 167 163 169 191 202 200 204 194 193 212 233 242 252 280 247 324 17 36 63 84
43 48 53 51 61 88 100 113 116 117 110 104 107 110 106 107 111 113 116 121 123 132 135 139 149 145 144 163 184 178 171 191 195 194 230 228 220 245 228 246 261 245 261 311 20 38 83
45 51 41 320 81 90 99 121 117 119 109 106 106 110 104 110 114 113 119 121 121 122 125 135 141 137 155 195 177 157 159 188 234 242 225 237 256 249 255 269 209 38 297 352 12 349 18
42 52 22 308 93 60 59 91 109 112 112 106 107 104 105 107 120 122 120 124 126 125 126 130 135 145 167 155 139 137 141 146 154 178 207 221 295 337 337 176 12 318 231 205 212 169 38
27 45 52 328 22 59 73 91 99 111 114 108 111 109 109 106 119 129 126 125 124 127 131 137 143 148 145 138 138 142 143 149 151 159 166 170 168 163 166 160 156 171 170 177 180 176 176
19 32 57 8 8 58 82 89 106 115 124 115 108 105 116 109 119 130 125 128 134 129 127 134 141 147 148 137 136 138 143 142 147 154 158 166 171 175 177 175 179 176 168 168 174 178 165
3 24 49 52 25 57 81 81 80 91 90 81 108 99 102 110 121 124 129 131 131 128 123 133 131 144 141 136 134 138 139 144 150 156 156 159 162 167 169 173 177 157 165 175 178 167 156
350 6 30 56 77 86 91 52 43 24 21 24 56 72 65 83 109 130 120 123 127 121 120 129 126 127 129 124 128 134 140 142 144 148 152 152 151 156 157 167 163 151 172 167 156 148 146